{"data":{"norad_id":49104,"epoch":"2026-09-19T20:23:03.800256Z","epoch_age_seconds":78176,"freshness":"FRESH","line1":"1 49104U 21075AF  26262.84934954  .00000062  00000+0  12446-3 0  9994","line2":"2 49104  87.9163 316.6504 0002059 102.0178 258.1185 13.18688706249647","mean_motion":13.18688706,"eccentricity":0.0002059,"inclination_deg":87.9163,"raan_deg":316.6504,"arg_perigee_deg":102.0178,"mean_anomaly_deg":258.1185,"bstar":0.00012446,"rev_number":24964,"period_min":109.19938825957,"perigee_km":1188.1745494227,"apogee_km":1191.2909981956,"semimajor_km":7567.8697738092,"source":"CELESTRAK","updated_at":"2026-09-20T09:00:44.658922Z"}}